Prescott, AZ

12:23 AM MST on September 17, 2019 (GMT -0700)
Love

Weather History for KPRC - August, 2019

Change the Weather History Date:

Saturday, August 24, 2019

  Actual Average Record
Temperature  
Mean Temperature 77 °F 73 °F  
Max Temperature 90 °F 86 °F 98 °F (2011)
Min Temperature 64 °F 60 °F 46 °F (1968)
Degree Days  
Heating Degree Days 0    
Month to date heating degree days 0  
Since 1 July heating degree days 0  
Cooling Degree Days 12    
Month to date cooling degree days 303  
Year to date cooling degree days 871  
Growing Degree Days 27 (Base 50)    
Moisture  
Dew Point 50 °F    
Average Humidity 41    
Maximum Humidity 73    
Minimum Humidity 19    
Precipitation  
Precipitation 0.00 in 0.08 in 1.42 in (1959)
Month to date precipitation 0.30 2.09  
Year to date precipitation 8.11 9.13  
Sea Level Pressure  
Sea Level Pressure 29.92 in    
Wind  
Wind Speed 7 mph ()    
Max Wind Speed 20 mph    
Max Gust Speed 25 mph    
Visibility 10.0 miles    
Events      
T = Trace of Precipitation, MM = Missing Value Source: Averaged Metar Reports

Daily Weather History Graph

Daily Weather History Graph

Search for Another Location

Airport or City:

Astronomy

Aug. 24, 2019 Rise Set
Actual Time 5:56 AM MST 7:06 PM MST
Civil Twilight 5:30 AM MST 7:32 PM MST
Nautical Twilight 4:59 AM MST 8:03 PM MST
Astronomical Twilight 4:27 AM MST 8:36 PM MST
Moon No Moon Rise 2:19 PM MST (8/24)
Length of Visible Light 14h 02m
Length of Day
13h 09m
Last Quarter, 38% of the Moon is Illuminated
Aug 24
Last Quarter
Aug 30
New
Sep 5
First Quarter
Sep 13
Full
Sep 21
Last Quarter

Hourly Weather History & Observations

Time (MST) Temp. Heat Index Dew Point Humidity Pressure Visibility Wind Dir Wind Speed Gust Speed Precip Events Conditions
12:53 AM 70.0 °F - 46.9 °F 44% 29.88 in 10.0 mi SW 9.2 mph - N/A   Clear
1:53 AM 71.1 °F - 48.0 °F 44% 29.88 in 10.0 mi SW 11.5 mph - N/A   Clear
2:53 AM 70.0 °F - 52.0 °F 53% 29.89 in 10.0 mi SSW 11.5 mph - N/A   Clear
3:53 AM 68.0 °F - 54.0 °F 61% 29.90 in 10.0 mi SW 5.8 mph - N/A   Clear
4:53 AM 66.9 °F - 54.0 °F 63% 29.91 in 10.0 mi SSW 6.9 mph - N/A   Clear
5:53 AM 64.9 °F - 55.0 °F 70% 29.93 in 10.0 mi South 5.8 mph - N/A   Clear
6:53 AM 66.9 °F - 55.9 °F 68% 29.96 in 10.0 mi South 3.5 mph - N/A   Clear
7:53 AM 72.0 °F - 54.0 °F 53% 29.96 in 10.0 mi SSE 3.5 mph - N/A   Clear
8:53 AM 77.0 °F - 52.0 °F 42% 29.97 in 10.0 mi SSE 4.6 mph - N/A   Clear
9:53 AM 80.1 °F - 51.1 °F 36% 29.97 in 10.0 mi Calm Calm - N/A   Clear
10:53 AM 82.9 °F - 48.0 °F 29% 29.95 in 10.0 mi Variable 4.6 mph - N/A   Partly Cloudy
11:53 AM 87.1 °F - 41.0 °F 20% 29.93 in 10.0 mi NW 9.2 mph - N/A   Clear
12:53 PM 89.1 °F - 41.0 °F 19% 29.91 in 10.0 mi NW 12.7 mph - N/A   Scattered Clouds
1:53 PM 88.0 °F - 44.1 °F 22% 29.90 in 10.0 mi Variable 5.8 mph 18.4 mph N/A   Scattered Clouds
2:53 PM 89.6 °F - 46.4 °F 22% 29.88 in 10.0 mi NW 13.8 mph 23.0 mph N/A   Scattered Clouds
3:53 PM 89.1 °F - 46.0 °F 22% 29.87 in 10.0 mi WNW 11.5 mph 16.1 mph N/A   Scattered Clouds
4:53 PM 88.0 °F - 45.0 °F 22% 29.88 in 10.0 mi West 10.4 mph - N/A   Scattered Clouds
5:53 PM 86.0 °F - 46.9 °F 26% 29.89 in 10.0 mi WSW 16.1 mph 25.3 mph N/A   Partly Cloudy
6:53 PM 82.9 °F - 51.1 °F 33% 29.91 in 10.0 mi WSW 13.8 mph - N/A   Clear
7:53 PM 80.1 °F 79.9 °F 53.1 °F 39% 29.92 in 10.0 mi SW 12.7 mph 21.9 mph N/A   Clear
8:53 PM 78.1 °F - 54.0 °F 43% 29.93 in 10.0 mi SW 8.1 mph - N/A   Clear
9:53 PM 75.9 °F - 55.9 °F 50% 29.94 in 10.0 mi South 3.5 mph - N/A   Clear
10:53 PM 75.0 °F - 57.9 °F 55% 29.92 in 10.0 mi SW 9.2 mph - N/A   Clear
11:53 PM 75.0 °F - 57.0 °F 53% 29.92 in 10.0 mi South 5.8 mph - N/A   Clear